This is the latest recevied weather packets stored in our database for station/object IT9CNT. If no packets are shown the sender has not sent any weather packets the latest 1 day(s).
| Time | Temp. | Humidity | Pressure | Rain* | Wind** | Luminosity | Snow |
|---|---|---|---|---|---|---|---|
| 1778045763 | 16.11° C | 75% | 1011.9 hPa | 0 mm | 4.02 m/s, 81° | - | - |
| 1778045703 | 16.11° C | 75% | 1011.6 hPa | 0 mm | 4.02 m/s, 79° | - | - |
| 1778045643 | 16.11° C | 75% | 1011.5 hPa | 0 mm | 4.02 m/s, 80° | - | - |
| 1778045583 | 16.11° C | 75% | 1011.7 hPa | 0 mm | 4.02 m/s, 83° | - | - |
| 1778045523 | 16.11° C | 75% | 1011.7 hPa | 0 mm | 4.02 m/s, 82° | - | - |
| 1778045463 | 16.11° C | 75% | 1011.6 hPa | 0 mm | 4.02 m/s, 86° | - | - |
| 1778045403 | 16.11° C | 75% | 1011.7 hPa | 0 mm | 4.02 m/s, 88° | - | - |
| 1778045343 | 16.11° C | 75% | 1011.6 hPa | 0 mm | 4.02 m/s, 94° | - | - |
| 1778045283 | 16.11° C | 75% | 1011.7 hPa | 0 mm | 4.02 m/s, 97° | - | - |
| 1778045223 | 16.11° C | 75% | 1011.5 hPa | 0 mm | 4.02 m/s, 96° | - | - |
| 1778045163 | 16.11° C | 75% | 1011.7 hPa | 0 mm | 4.02 m/s, 98° | - | - |
| 1778045103 | 16.11° C | 75% | 1011.7 hPa | 0 mm | 4.02 m/s, 95° | - | - |
| 1778045043 | 16.11° C | 75% | 1011.8 hPa | 0 mm | 4.02 m/s, 96° | - | - |
| 1778044983 | 16.11° C | 75% | 1011.9 hPa | 0 mm | 3.58 m/s, 96° | - | - |
| 1778044923 | 16.11° C | 75% | 1011.8 hPa | 0 mm | 3.58 m/s, 97° | - | - |
| 1778044863 | 16.11° C | 75% | 1011.5 hPa | 0 mm | 4.02 m/s, 94° | - | - |
| 1778044803 | 15.56° C | 75% | 1011.7 hPa | 0 mm | 3.58 m/s, 90° | - | - |
| 1778044743 | 15.56° C | 75% | 1011.6 hPa | 0 mm | 3.58 m/s, 86° | - | - |
| 1778044683 | 15.56° C | 75% | 1011.7 hPa | 0 mm | 3.58 m/s, 85° | - | - |
| 1778044623 | 15.56° C | 75% | 1011.6 hPa | 0 mm | 3.58 m/s, 88° | - | - |
| 1778044563 | 15.56° C | 75% | 1011.6 hPa | 0 mm | 3.58 m/s, 90° | - | - |
| 1778044503 | 15.56° C | 75% | 1011.9 hPa | 0 mm | 3.58 m/s, 94° | - | - |
| 1778044443 | 15.56° C | 75% | 1011.8 hPa | 0 mm | 3.58 m/s, 95° | - | - |
| 1778044383 | 15.56° C | 75% | 1011.8 hPa | 0 mm | 3.58 m/s, 95° | - | - |
| 1778044323 | 15.56° C | 75% | 1011.5 hPa | 0 mm | 3.58 m/s, 94° | - | - |
* Rain latest hour (hover to see other rain measurements)
** Current wind speed in m/s (hover to see current wind gust speed)